Weather History for KSBP - February, 2013

Change the Weather History Date:

Thursday, February 14, 2013

  Actual Average Record
Temperature  
Mean Temperature 56 °F -  
Max Temperature 73 °F 62 °F 80 °F (2015)
Min Temperature 39 °F 45 °F 35 °F (1966)
Degree Days  
Heating Degree Days 9    
Growing Degree Days 6 (Base 50)    
Moisture  
Dew Point 42 °F    
Average Humidity 68    
Maximum Humidity 89    
Minimum Humidity 33    
Precipitation  
Precipitation 0.00 in - - ()
Sea Level Pressure  
Sea Level Pressure 30.16 in    
Wind  
Wind Speed 2 mph (WNW)    
Max Wind Speed 9 mph    
Max Gust Speed -    
Visibility 10 miles    
Events      
Averages and records for this station are not official NWS values.
T = Trace of Precipitation, MM = Missing Value Source: NWS Daily Summary

Daily Weather History Graph

Daily Weather History Graph

Search for Another Location

Airport or City:

Trip Planner

Search our weather history database for the weather conditions in past years. The results will help you decide how hot, cold, wet, or windy it might be!

Date:

Astronomy

Feb. 14, 2013 Rise Set
Actual Time 6:49 AM PST 5:44 PM PST
Civil Twilight 6:23 AM PST 6:10 PM PST
Nautical Twilight 5:53 AM PST 6:40 PM PST
Astronomical Twilight 5:24 AM PST 7:09 PM PST
Moon 9:07 AM PST (2/14) 10:38 PM PST (2/14)
Length of Visible Light 11h 46m
Length of Day
10h 54m
Waxing Crescent, 22% of the Moon is Illuminated
Feb 14
Waxing Crescent
Feb 17
First Quarter
Feb 25
Full
Mar 4
Last Quarter
Mar 11
New

Hourly Weather History & Observations

Time (PST) Temp. Windchill Dew Point Humidity Pressure Visibility Wind Dir Wind Speed Gust Speed Precip Events Conditions
12:56 AM 42.1 °F - 37.9 °F 85% 30.18 in 10.0 mi Calm Calm - N/A   Clear
1:56 AM 42.1 °F 39.2 °F 37.9 °F 85% 30.18 in 10.0 mi East 4.6 mph - N/A   Clear
2:56 AM 39.9 °F 36.7 °F 37.0 °F 89% 30.17 in 10.0 mi ESE 4.6 mph - N/A   Clear
3:56 AM 42.1 °F - 37.0 °F 82% 30.17 in 10.0 mi Calm Calm - N/A   Clear
4:56 AM 39.9 °F 35.8 °F 36.0 °F 86% 30.16 in 10.0 mi ESE 5.8 mph - N/A   Clear
5:56 AM 39.0 °F - 35.1 °F 86% 30.16 in 10.0 mi Calm Calm - N/A   Clear
7:56 AM 45.0 °F - 37.0 °F 74% 30.17 in 10.0 mi Calm Calm - N/A   Clear
8:56 AM 52.0 °F - 39.9 °F 63% 30.17 in 10.0 mi Calm Calm - N/A   Clear
9:56 AM 61.0 °F - 37.9 °F 42% 30.18 in 10.0 mi SW 3.5 mph - N/A   Clear
10:56 AM 64.9 °F - 37.9 °F 37% 30.18 in 10.0 mi Calm Calm - N/A   Clear
11:56 AM 71.1 °F - 41.0 °F 34% 30.15 in 10.0 mi Calm Calm - N/A   Clear
12:56 PM 73.0 °F - 42.1 °F 33% 30.12 in 10.0 mi Calm Calm - N/A   Clear
1:56 PM 72.0 °F - 44.1 °F 37% 30.09 in 10.0 mi WNW 6.9 mph - N/A   Clear
2:56 PM 69.1 °F - 44.1 °F 40% 30.10 in 10.0 mi NW 5.8 mph - N/A   Clear
3:56 PM 66.0 °F - 46.0 °F 48% 30.11 in 10.0 mi WNW 6.9 mph - N/A   Clear
4:56 PM 60.1 °F - 48.9 °F 67% 30.12 in 10.0 mi WNW 8.1 mph - N/A   Clear
5:56 PM 54.0 °F - 48.0 °F 80% 30.14 in 10.0 mi NW 6.9 mph - N/A   Clear
6:56 PM 54.0 °F - 46.9 °F 77% 30.17 in 10.0 mi Calm Calm - N/A   Clear
7:56 PM 52.0 °F - 46.0 °F 80% 30.16 in 10.0 mi Calm Calm - N/A   Clear
8:56 PM 48.9 °F - 45.0 °F 86% 30.17 in 10.0 mi ESE 9.2 mph - N/A   Clear
9:56 PM 50.0 °F - 45.0 °F 83% 30.19 in 10.0 mi Calm Calm - N/A   Clear
10:56 PM 48.0 °F - 43.0 °F 83% 30.18 in 10.0 mi Calm Calm - N/A   Clear
11:56 PM 45.0 °F - 41.0 °F 86% 30.18 in 10.0 mi Calm Calm - N/A   Clear